Phuket, Thailand

10:14 PM +07 on May 25, 2017 (GMT +0700)
Phuket International

Weather History for VTSP - November, 2013

Change the Weather History Date:

Saturday, November 30, 2013

  Actual Average Record
Temperature  
Mean Temperature 80 °F -  
Max Temperature 87 °F 88 °F 95 °F (2001)
Min Temperature 72 °F 74 °F 71 °F (2003)
Cooling Degree Days 14    
Growing Degree Days 30 (Base 50)    
Moisture  
Dew Point 73 °F    
Average Humidity 78    
Maximum Humidity 94    
Minimum Humidity 59    
Precipitation  
Precipitation 0.39 in 0.09 in - ()
Sea Level Pressure  
Sea Level Pressure 29.82 in    
Wind  
Wind Speed 5 mph ()    
Max Wind Speed 13 mph    
Max Gust Speed -    
Visibility 5.5 miles    
Events Rain    
Averages and records for this station are not official NWS values.
T = Trace of Precipitation, MM = Missing Value Source: Averaged Metar Reports

Daily Weather History Graph

Daily Weather History Graph

Search for Another Location

Airport or City:

Trip Planner

Search our weather history database for the weather conditions in past years. The results will help you decide how hot, cold, wet, or windy it might be!

Date:

Astronomy

Nov. 30, 2013 Rise Set
Actual Time 6:24 AM +07 6:06 PM +07
Civil Twilight 6:02 AM +07 6:28 PM +07
Nautical Twilight 5:36 AM +07 6:54 PM +07
Astronomical Twilight 5:10 AM +07 7:20 PM +07
Moon 3:32 AM +07 (11/30) 3:42 PM +07 (11/30)
Length of Visible Light 12h 26m
Length of Day
11h 41m
Waning Crescent, 10% of the Moon is Illuminated
Nov 30
Waning Crescent
Dec 3
New
Dec 9
First Quarter
Dec 17
Full
Dec 25
Last Quarter

Hourly Weather History & Observations

Time (+07) Temp. Heat Index Dew Point Humidity Pressure Visibility Wind Dir Wind Speed Gust Speed Precip Events Conditions
12:00 AM 78.8 °F - 71.6 °F 78% 29.86 in 5.0 mi ENE 8.1 mph - N/A   Mostly Cloudy
12:30 AM 77.0 °F - 71.6 °F 83% 29.86 in 5.0 mi ENE 4.6 mph - N/A   Mostly Cloudy
1:00 AM 78 °F - 75 °F 89% 29.83 in 6 mi Calm Calm - -   Scattered Clouds
1:00 AM 78.8 °F - 73.4 °F 83% 29.86 in 5.0 mi ENE 3.5 mph - N/A   Mostly Cloudy
1:30 AM 78.8 °F - 71.6 °F 78% 29.83 in 5.0 mi ENE 4.6 mph - N/A   Mostly Cloudy
2:00 AM 77.0 °F - 71.6 °F 83% 29.83 in 5.0 mi ENE 5.8 mph - N/A   Mostly Cloudy
2:30 AM 77.0 °F - 71.6 °F 83% 29.83 in 5.0 mi ENE 3.5 mph - N/A   Mostly Cloudy
3:00 AM 78.8 °F - 71.6 °F 78% 29.80 in 5.0 mi ENE 4.6 mph - N/A   Mostly Cloudy
3:30 AM 77.0 °F - 73.4 °F 89% 29.80 in 5.0 mi ENE 3.5 mph - N/A   Mostly Cloudy
4:00 AM 77 °F - 74 °F 90% 29.78 in 6 mi Calm Calm - -   Scattered Clouds
4:00 AM 77.0 °F - 73.4 °F 89% 29.77 in 5.0 mi ENE 3.5 mph - N/A   Mostly Cloudy
4:30 AM 77.0 °F - 73.4 °F 89% 29.80 in 5.0 mi Calm Calm - N/A   Mostly Cloudy
5:00 AM 77.0 °F - 71.6 °F 83% 29.80 in 5.0 mi Calm Calm - N/A   Mostly Cloudy
6:00 AM 77.0 °F - 71.6 °F 83% 29.83 in 5.0 mi NE 3.5 mph - N/A   Mostly Cloudy
6:30 AM 77.0 °F - 71.6 °F 83% 29.83 in 5.0 mi NE 3.5 mph - N/A   Mostly Cloudy
7:00 AM 77 °F - 74 °F 90% 29.80 in 6 mi Calm Calm - -   Scattered Clouds
7:00 AM 77.0 °F - 73.4 °F 89% 29.83 in 5.6 mi ENE 5.8 mph - N/A   Mostly Cloudy
7:30 AM 78.8 °F - 73.4 °F 83% 29.83 in 6.2 mi ENE 8.1 mph - N/A   Mostly Cloudy
8:30 AM 80.6 °F 85.4 °F 73.4 °F 79% 29.86 in 6.2 mi NE 5.8 mph - N/A   Mostly Cloudy
9:00 AM 80.6 °F 85.4 °F 73.4 °F 79% 29.86 in 6.2 mi ENE 3.5 mph - N/A   Mostly Cloudy
9:30 AM 84.2 °F 90.9 °F 73.4 °F 70% 29.89 in 6.2 mi East 12.7 mph - N/A   Mostly Cloudy
10:00 AM 85 °F - 74 °F 64% 29.84 in 6 mi ENE 10.4 mph - -   Scattered Clouds
10:00 AM 86.0 °F 93.4 °F 73.4 °F 66% 29.86 in 6.2 mi East 9.2 mph - N/A   Mostly Cloudy
10:30 AM 84.2 °F 90.9 °F 73.4 °F 70% 29.86 in 6.2 mi ENE 6.9 mph - N/A   Mostly Cloudy
11:00 AM 86.0 °F 93.4 °F 73.4 °F 66% 29.86 in 6.2 mi East 11.5 mph - N/A   Mostly Cloudy
11:30 AM 86.0 °F 93.4 °F 73.4 °F 66% 29.83 in 6.2 mi East 12.7 mph - N/A   Mostly Cloudy
12:00 PM 86.0 °F 93.4 °F 73.4 °F 66% 29.83 in 6.2 mi ENE 9.2 mph - N/A   Mostly Cloudy
12:30 PM 87.8 °F 95.6 °F 73.4 °F 62% 29.80 in 5.6 mi ENE 8.1 mph - N/A   Mostly Cloudy
1:00 PM 87 °F - 75 °F 59% 29.79 in 6 mi Calm Calm - -   Scattered Clouds
1:00 PM 86.0 °F 93.4 °F 73.4 °F 66% 29.80 in 5.6 mi East 10.4 mph - N/A   Mostly Cloudy
1:30 PM 84.2 °F 90.9 °F 73.4 °F 70% 29.77 in 5.6 mi ENE 5.8 mph - N/A   Mostly Cloudy
2:00 PM 84.2 °F 92.3 °F 75.2 °F 74% 29.77 in 5.6 mi WNW 3.5 mph - N/A   Mostly Cloudy
2:30 PM 86.0 °F 93.4 °F 73.4 °F 66% 29.77 in 5.6 mi Variable 2.3 mph - N/A   Mostly Cloudy
3:00 PM 86.0 °F 91.8 °F 71.6 °F 62% 29.77 in 5.6 mi ENE 8.1 mph - N/A   Mostly Cloudy
3:30 PM 86.0 °F 91.8 °F 71.6 °F 62% 29.77 in 5.6 mi NE 5.8 mph - N/A   Mostly Cloudy
4:00 PM 86 °F - 75 °F 64% 29.74 in 6 mi Calm Calm - -   Scattered Clouds
4:00 PM 84.2 °F 90.9 °F 73.4 °F 70% 29.77 in 5.6 mi East 4.6 mph - N/A   Mostly Cloudy
4:30 PM 80.6 °F 85.4 °F 73.4 °F 79% 29.77 in 1.9 mi ESE 6.9 mph - N/A Rain Rain
5:00 PM 77.0 °F - 75.2 °F 94% 29.80 in 4.3 mi East 4.6 mph - N/A   Mostly Cloudy
6:00 PM 78.8 °F - 75.2 °F 89% 29.80 in 4.3 mi ENE 6.9 mph - N/A   Mostly Cloudy
6:30 PM 78.8 °F - 75.2 °F 89% 29.80 in 4.3 mi ESE 3.5 mph - N/A   Mostly Cloudy
7:00 PM 78 °F - 76 °F 93% 29.78 in 6 mi Calm Calm - - Rain Light Rain
7:00 PM 78.8 °F - 75.2 °F 89% 29.83 in 5.0 mi ENE 4.6 mph - N/A   Mostly Cloudy
7:30 PM 78.8 °F - 73.4 °F 83% 29.83 in 5.0 mi ENE 9.2 mph - N/A   Mostly Cloudy
8:00 PM 78.8 °F - 73.4 °F 83% 29.83 in 5.0 mi ENE 5.8 mph - N/A   Mostly Cloudy
8:30 PM 78.8 °F - 73.4 °F 83% 29.86 in 5.6 mi ENE 6.9 mph - N/A   Mostly Cloudy
9:00 PM 78.8 °F - 73.4 °F 83% 29.86 in 6.2 mi ENE 6.9 mph - N/A   Mostly Cloudy
9:30 PM 78.8 °F - 71.6 °F 78% 29.86 in 5.6 mi ENE 6.9 mph - N/A   Mostly Cloudy
10:00 PM 78.8 °F - 73.4 °F 83% 29.86 in 6.2 mi ENE 10.4 mph - N/A   Mostly Cloudy
10:30 PM 78.8 °F - 73.4 °F 83% 29.86 in 6.2 mi ENE 10.4 mph - N/A   Mostly Cloudy
11:00 PM 78.8 °F - 73.4 °F 83% 29.86 in 6.2 mi ENE 8.1 mph - N/A   Mostly Cloudy
11:30 PM 78.8 °F - 71.6 °F 78% 29.86 in 6.2 mi ENE 5.8 mph - N/A   Scattered Clouds